Flag for Russia Weather past 2 weeks in Orenburg, Russia

Now
66 °F

Broken clouds.


Feels Like: 66 °F
Forecast: 50 / 65 °F
Wind: 15 mph from South

Location: Orenburg / Tsentralny


UV Index: 3 (Moderate)

Visibility: N/A


Pressure: 30.24 "Hg

Humidity: 17%

Dew point: 19 °F

Location of OrenburgLocation

Historic Weather in Orenburg

°F

Orenburg temperature yesterday

Maximum temperature yesterday: 64 °F (at 3:30 PM)
Minimum temperature yesterday: 32 °F (at 6:30 AM)
Average temperature yesterday: 49 °F

Past Weeks' High & Low Weather Summary

 TemperatureHumidityPressure
High68 °F (Apr 17, 3:00 PM)100% (Apr 6, 1:00 AM)30.63 "Hg (Apr 6, 1:00 AM)
Low21 °F (Apr 11, 8:00 AM)17% (Apr 17, 3:00 PM)29.56 "Hg (Apr 6, 5:30 AM)
Average37 °F62%30.10 "Hg
* Reported Apr 2 3:00 PM — Apr 17 3:00 PM, Orenburg, Weather by CustomWeather, © 2014

Note: Actual official high and low records may vary slightly from our data, if they occured in-between our weather recording intervals... More about our weather records

Advertising

Historic Weather Conditions — Data for Previous 24 hours

 ConditionsComfort  
Time TempWeatherWind HumidityBarometerVisibility
3:00 PM
Apr 17
68 °FPartly sunny.15 mph17%30.27 "HgN/A
2:30 PM64 °FOvercast.15 mph21%30.27 "HgN/A
2:00 PM64 °FOvercast.13 mph21%30.27 "HgN/A
1:30 PM63 °FOvercast.10 mph24%30.30 "Hg3 mi
1:00 PM61 °FOvercast.8 mph27%30.30 "Hg3 mi
12:30 PM61 °FOvercast.8 mph27%30.33 "HgN/A
12:00 PM59 °FOvercast.8 mph29%30.33 "HgN/A
11:30 AM55 °FOvercast.8 mph38%30.33 "HgN/A
11:00 AM54 °FPartly sunny.8 mph38%30.33 "HgN/A
10:30 AM52 °FOvercast.6 mph41%30.33 "HgN/A
10:00 AM48 °FOvercast.3 mph50%30.33 "HgN/A
9:30 AM45 °FMore clouds than sun.6 mph61%30.33 "HgN/A
9:00 AM45 °FMore clouds than sun.6 mph57%30.33 "HgN/A
8:30 AM43 °FBroken clouds.6 mph66%30.33 "HgN/A
8:00 AM41 °FBroken clouds.3 mph66%30.33 "HgN/A
7:30 AM39 °FBroken clouds.6 mph70%30.33 "HgN/A
7:00 AM37 °FOvercast.6 mph75%30.33 "HgN/A
6:30 AM37 °FOvercast.8 mph75%30.33 "HgN/A
6:00 AM37 °FOvercast.6 mph75%30.33 "HgN/A
5:30 AM39 °FOvercast.6 mph70%30.33 "HgN/A
5:00 AM37 °FPassing clouds.6 mph75%30.33 "HgN/A
4:30 AM37 °FPassing clouds.8 mph75%30.33 "HgN/A
4:00 AM37 °FPassing clouds.6 mph75%30.33 "HgN/A
3:30 AM37 °FPassing clouds.6 mph75%30.33 "HgN/A
3:00 AM37 °FPassing clouds.6 mph75%30.33 "HgN/A
2:30 AM39 °FPassing clouds.6 mph70%30.33 "HgN/A
2:00 AM39 °FPassing clouds.3 mph70%30.33 "HgN/A
1:30 AM41 °FPassing clouds.6 mph66%30.33 "HgN/A
1:00 AM45 °FPassing clouds.3 mph57%30.33 "HgN/A
12:30 AM45 °FPassing clouds.8 mph57%30.33 "HgN/A
12:00 AM46 °FPassing clouds.8 mph53%30.33 "HgN/A
11:30 PM
Apr 16
48 °FPassing clouds.8 mph50%30.33 "HgN/A
11:00 PM46 °FPassing clouds.8 mph53%30.36 "HgN/A
10:30 PM45 °FPassing clouds.8 mph57%30.36 "HgN/A
10:00 PM50 °FPassing clouds.8 mph43%30.36 "HgN/A
9:30 PM52 °FPassing clouds.6 mph35%30.33 "HgN/A
9:00 PM55 °FPartly sunny.6 mph28%30.33 "HgN/A
8:30 PM61 °FPartly sunny.8 mph23%30.33 "HgN/A
8:00 PM63 °FPartly sunny.10 mph22%30.33 "HgN/A
7:00 PM64 °FPartly sunny.13 mph19%30.33 "HgN/A
6:30 PM63 °FPartly sunny.13 mph20%30.36 "HgN/A
6:00 PM64 °FPartly sunny.13 mph19%30.36 "HgN/A
5:30 PM64 °FPartly sunny.13 mph21%30.36 "HgN/A
5:00 PM64 °FPartly sunny.13 mph19%30.36 "HgN/A
4:30 PM64 °FPartly sunny.10 mph19%30.36 "HgN/A
4:00 PM64 °FPartly sunny.15 mph19%30.39 "HgN/A
Weather by CustomWeather, © 2014

See weather overview